Weather History for North Island, CA

Change the Weather History Date:

Monday, February 3, 2014

  Actual Average Record
Temperature  
Mean Temperature 60 °F -  
Max Temperature 64 °F 61 °F 84 °F (2009)
Min Temperature 55 °F 48 °F 43 °F (1999)
Degree Days  
Heating Degree Days 6    
Growing Degree Days 10 (Base 50)    
Moisture  
Dew Point 46 °F    
Average Humidity 61    
Maximum Humidity 72    
Minimum Humidity 52    
Precipitation  
Precipitation 0.08 in - - ()
Sea Level Pressure  
Sea Level Pressure 29.94 in    
Wind  
Wind Speed 9 mph (South)    
Max Wind Speed 21 mph    
Max Gust Speed -    
Visibility 10 miles    
Events Rain    
Averages and records for this station are not official NWS values.
T = Trace of Precipitation, MM = Missing Value Source: NWS Daily Summary

Daily Weather History Graph

Daily Weather History Graph

Search for Another Location

Airport:

Trip Planner

Search our weather history database for the weather conditions in past years. The results will help you decide how hot, cold, wet, or windy it might be!

Date:

Astronomy

Feb. 03, 2014 Rise Set
Actual Time 6:42 AM PST 5:23 PM PST
Civil Twilight 6:16 AM PST 5:49 PM PST
Nautical Twilight 5:47 AM PST 6:18 PM PST
Astronomical Twilight 5:18 AM PST 6:47 PM PST
Moon 9:04 AM PST (2/3) 9:59 PM PST (2/3)
Length of Visible Light 11h 33m
Length of Day
10h 41m
Waxing Crescent, 20% of the Moon is Illuminated
Feb 3
Waxing Crescent
Feb 6
First Quarter
Feb 14
Full
Feb 22
Last Quarter
Mar 1
New

Hourly Weather History & Observations

Time (PST) Temp. Dew Point Humidity Pressure Visibility Wind Dir Wind Speed Gust Speed Precip Events Conditions
12:00 AM 61.0 °F 45.0 °F 56% 29.97 in 10.0 mi WSW 8.1 mph - 0.00 in Rain Light Rain
12:52 AM 57.9 °F 41.0 °F 53% 29.97 in 10.0 mi SW 11.5 mph - 0.01 in Rain Light Rain
1:52 AM 55.0 °F 45.0 °F 69% 29.94 in 10.0 mi ESE 5.8 mph - 0.03 in   Mostly Cloudy
2:20 AM 55.0 °F 46.0 °F 72% 29.92 in 9.0 mi ESE 11.5 mph - 0.00 in Rain Light Rain
2:52 AM 55.9 °F 46.0 °F 69% 29.92 in 9.0 mi East 8.1 mph - 0.00 in Rain Light Rain
3:52 AM 55.0 °F 46.0 °F 72% 29.88 in 8.0 mi SE 20.7 mph - 0.03 in Rain Light Rain
4:20 AM 55.9 °F 46.0 °F 69% 29.89 in 10.0 mi SE 16.1 mph - 0.01 in   Mostly Cloudy
4:52 AM 57.0 °F 46.0 °F 67% 29.89 in 10.0 mi SE 15.0 mph - 0.01 in   Mostly Cloudy
5:52 AM 55.9 °F 45.0 °F 67% 29.88 in 10.0 mi SSE 4.6 mph - N/A   Mostly Cloudy
6:52 AM 55.9 °F 45.0 °F 67% 29.91 in 10.0 mi East 5.8 mph - N/A   Mostly Cloudy
7:37 AM 57.0 °F 46.0 °F 67% 29.92 in 10.0 mi East 6.9 mph - N/A   Mostly Cloudy
7:52 AM 59.0 °F 46.0 °F 62% 29.93 in 10.0 mi SE 6.9 mph - N/A   Mostly Cloudy
8:52 AM 62.1 °F 46.0 °F 56% 29.95 in 10.0 mi East 6.9 mph - N/A   Mostly Cloudy
9:52 AM 62.1 °F 46.0 °F 56% 29.96 in 10.0 mi SE 5.8 mph - N/A   Mostly Cloudy
10:52 AM 60.1 °F 46.9 °F 62% 29.96 in 10.0 mi South 6.9 mph - 0.00 in Rain Light Rain
11:46 AM 62.6 °F 50.0 °F 63% 29.94 in 10.0 mi South 8.1 mph - 0.00 in   Mostly Cloudy
11:52 AM 63.0 °F 48.9 °F 60% 29.94 in 10.0 mi South 9.2 mph - 0.00 in   Mostly Cloudy
12:52 PM 64.0 °F 50.0 °F 60% 29.93 in 10.0 mi South 9.2 mph - N/A   Scattered Clouds
1:52 PM 64.0 °F 50.0 °F 60% 29.92 in 10.0 mi South 6.9 mph - N/A   Scattered Clouds
2:52 PM 64.9 °F 48.9 °F 56% 29.91 in 10.0 mi South 5.8 mph - N/A   Scattered Clouds
3:52 PM 64.9 °F 46.9 °F 52% 29.92 in 10.0 mi WNW 9.2 mph - N/A   Partly Cloudy
4:52 PM 63.0 °F 46.0 °F 54% 29.94 in 10.0 mi WNW 6.9 mph - N/A   Partly Cloudy
5:52 PM 61.0 °F 45.0 °F 56% 29.95 in 10.0 mi WNW 5.8 mph - N/A   Scattered Clouds
6:52 PM 60.1 °F 46.0 °F 60% 29.96 in 10.0 mi West 5.8 mph - N/A   Scattered Clouds
7:52 PM 61.0 °F 46.9 °F 60% 29.98 in 10.0 mi West 8.1 mph - N/A   Mostly Cloudy
8:52 PM 60.1 °F 45.0 °F 57% 29.99 in 10.0 mi West 8.1 mph - N/A   Scattered Clouds
9:52 PM 60.1 °F 45.0 °F 57% 30.00 in 10.0 mi West 4.6 mph - 0.00 in   Scattered Clouds
10:52 PM 60.1 °F 45.0 °F 57% 30.01 in 10.0 mi West 6.9 mph - N/A   Scattered Clouds
11:52 PM 57.9 °F 45.0 °F 62% 30.01 in 10.0 mi WSW 4.6 mph - N/A   Scattered Clouds